www.pogodaiklimat.ru

Погода и климат >> Архив погоды >> Австралия >> Квинсленд >> Блэколл


ПОГОДА в Блэколле

  • Прогноз погоды в Блэколле
  • Монитор погоды в Блэколле

АРХИВ ПОГОДЫ в Блэколле

Время (UTC), дата Ветер
(напр.,м/с)
 
Видим.   Явления Облачность Т
(С)
Тd
(С)
f
(%)
Тe
(С)
Тes
(С)
Комфортность P
(гПа)
Po
(гПа)
Тmin
(С)
Tmax
(С)
R
(мм)
R24
(мм)
S
(см)
08 14.01 СВ 5 н/о н/о +37.3 +3.1 12 +34 +34 очень
жарко
1007.4 976.2
11 14.01 СВ 4 н/о н/о +32.0 +5.5 19 +30 +30 жарко 1009.4 978.1
14 14.01 СВ 4 н/о н/о +28.7 +7.3 26 +28 +28 жарко 1010.5 979.2 +39.0
17 14.01 СВ 5 н/о н/о +27.4 +14.1 44 +30 +30 жарко 1010.5 979.2
20 14.01 СВ 3 н/о н/о +24.9 +14.4 52 +27 +27 жарко 1012.6 981.2
23 14.01 СВ 6 н/о н/о +29.7 +16.5 45 +33 +33 душно 1014.3 982.9
02 15.01 СВ 3 н/о н/о +34.3 +15.2 32 +36 +36 душно 1012.1 980.7 +24.7
05 15.01 СВ 4 н/о н/о +37.1 +9.6 19 +36 +36 очень
жарко
1008.6 977.3
08 15.01 СВ 5 н/о н/о +37.3 +6.3 15 +35 +35 очень
жарко
1007.5 976.3
11 15.01 СВ 3 н/о н/о +32.7 +8.2 22 +31 +31 жарко 1009.1 977.8
14 15.01 СВ 3 н/о н/о +28.8 +7.9 27 +28 +28 жарко 1009.6 978.3 +38.8
17 15.01 СВ 2 н/о н/о +26.7 +10.0 35 +27 +27 жарко 1009.2 977.9
20 15.01 СВ 2 н/о н/о +23.5 +11.5 47 +25 +25 комфорт 1010.2 978.9
23 15.01 С 5 н/о н/о +31.2 +13.5 34 +32 +32 жарко 1011.8 980.4
02 16.01 С 3 н/о н/о +35.9 +11.5 23 +35 +35 очень
жарко
1010.0 978.7 +23.2
05 16.01 В 5 н/о н/о +39.1 +9.6 17 +37 +37 очень
жарко
1006.7 975.5
08 16.01 ЮВ 5 н/о н/о +39.6 +8.1 15 +37 +37 очень
жарко
1004.9 973.8
11 16.01 С 3 н/о {туман} н/о +31.1 +18.1 46 +36 +36 очень
душно
1006.8 975.6
14 16.01 СВ 3 н/о н/о +29.8 +15.1 41 +32 +32 душно 1008.0 976.8 +40.7
17 16.01 СВ 4 н/о н/о +29.7 +15.4 42 +32 +32 душно 1007.7 976.5
20 16.01 С 2 н/о н/о +26.7 +15.1 49 +29 +29 жарко 1009.8 978.5
23 16.01 С 6 н/о н/о +31.8 +16.1 39 +35 +35 очень
душно
1010.4 979.1
02 17.01 С 4 н/о н/о +35.2 +13.9 28 +36 +36 очень
жарко
1009.0 977.7 +26.7
05 17.01 В 5 н/о н/о +38.6 +12.4 21 +38 +38 очень
жарко
1006.1 974.9
08 17.01 В 5 н/о н/о +38.4 +12.2 21 +38 +38 очень
жарко
1004.9 973.8
11 17.01 СВ 7 н/о н/о +34.7 +11.2 24 +34 +34 очень
жарко
1006.9 975.7
14 17.01 СВ 6 н/о н/о +31.2 +10.0 27 +31 +31 жарко 1007.8 976.6 +40.6
17 17.01 СВ 4 н/о н/о +28.1 +10.8 34 +29 +29 жарко 1007.9 976.7
20 17.01 СВ 5 н/о н/о +26.4 +15.1 50 +29 +29 жарко 1010.0 978.7
23 17.01 С 6 н/о н/о +29.8 +13.1 36 +31 +31 жарко 1012.1 980.7
02 18.01 С 5 н/о н/о +34.6 +11.1 24 +34 +34 очень
жарко
1010.2 978.9 +26.4
05 18.01 СВ 7 н/о н/о +37.3 +8.2 17 +35 +35 очень
жарко
1008.0 976.8
08 18.01 СВ 5 н/о н/о +36.3 +10.5 21 +35 +35 очень
жарко
1007.8 976.6
11 18.01 С 3 н/о н/о +32.1 +11.3 28 +32 +32 жарко 1010.0 978.7
14 18.01 СВ 4 н/о н/о +29.0 +11.1 33 +30 +30 жарко 1010.8 979.5 +38.8
17 18.01 СВ 5 н/о н/о +27.8 +15.1 46 +30 +30 жарко 1010.5 979.2
20 18.01 СВ 6 н/о н/о +25.7 +17.6 61 +30 +30 душно 1012.3 980.9
23 18.01 С 6 н/о н/о +29.7 +15.8 43 +33 +33 душно 1013.4 982.0
02 19.01 СВ 5 н/о н/о +35.6 +13.1 26 +36 +36 очень
жарко
1012.2 980.8 +25.7
05 19.01 ЮВ 7 н/о н/о +39.1 +7.7 15 +37 +37 очень
жарко
1009.5 978.2
08 19.01 В 7 н/о н/о +38.8 +3.1 11 +36 +36 очень
жарко
1008.3 977.1
11 19.01 СВ 4 н/о н/о +33.2 +8.6 22 +32 +32 жарко 1009.8 978.5
14 19.01 СВ 5 н/о н/о +30.4 +10.9 30 +31 +31 жарко 1011.3 980.0 +40.1
17 19.01 СВ 2 н/о н/о +26.6 +13.7 45 +29 +29 жарко 1010.8 979.5
20 19.01 В 2 н/о н/о +23.4 +13.3 53 +27 +27 душно 1012.2 980.8
23 19.01 В 5 н/о н/о +30.1 +16.5 44 +33 +33 душно 1014.0 982.6
02 20.01 В 7 н/о н/о +36.2 +8.1 18 +34 +34 очень
жарко
1012.4 981.0 +23.0
05 20.01 СВ 9 н/о н/о +39.3 -1.0 8 +35 +35 очень
жарко
1009.8 978.5
08 20.01 СВ 6 н/о н/о +37.8 +3.5 12 +35 +35 очень
жарко
1009.1 977.8
11 20.01 СВ 4 н/о н/о +32.9 +7.0 20 +31 +31 жарко 1011.2 979.9
14 20.01 С 3 н/о н/о +29.7 +10.8 31 +30 +30 жарко 1011.6 980.3 +40.8
17 20.01 СВ 3 н/о н/о +26.7 +12.0 40 +28 +28 жарко 1010.6 979.3
20 20.01 СВ 3 н/о н/о +25.3 +15.0 53 +28 +28 жарко 1011.9 980.5
23 20.01 СВ 6 н/о н/о +30.0 +14.9 40 +32 +32 жарко 1013.1 981.7
02 21.01 СВ 3 н/о н/о +34.5 +13.3 28 +35 +35 очень
жарко
1011.4 980.1 +25.2
05 21.01 В 5 н/о н/о +38.3 +9.8 18 +37 +37 очень
жарко
1008.8 977.5

 

Местоположение метеостанции Блэколл (Квинсленд, Австралия): широта -24.42 долгота 145.43 высота над уровнем моря 282 м.

В архиве по умолчанию представлена погода в Блэколле за последнюю неделю. Архивные данные за месяц целиком и за предыдущие месяцы, начиная с января 2011 года, Вы можете получить, выбрав интересующий диапазон дат из раскрывающегося списка и нажав кнопку "Ввод!".


*Определитесь, кто Вы:
робот инопланетянин человек

Внимание! Время в таблицах - всемирное. Для получения местного времени необходимо прибавить поправку, которая равна 10 ч.

Смотрите также архив погоды в соседних городах и на ближайших метеорологических станциях:

Погода в Лонгриче (Квинсленд, Австралия) (161 км)
Погода в Лочингтоне (Квинсленд, Австралия) (219 км)
Погода в Чарвилле (Квинсленд, Австралия) (237 км)
Погода в Клермоне (Квинсленд, Австралия) (289 км)
Погода в Эмералде (Квинсленд, Австралия) (295 км)
Погода в Роллстоне (Квинсленд, Австралия) (324 км)
Погода в Уинтоне (Квинсленд, Австралия) (331 км)
Погода в Роме (Квинсленд, Австралия) (411 км)
Погода в Хьюэндене (Квинсленд, Австралия) (419 км)
Погода в Таргоминде (Квинсленд, Австралия) (428 км)

Пояснения к столбцам:

Ветер - указаны скорость ветра в м/с - средняя за 10 мин, порывы в срок и между сроками (в фигурных скобках) и направление, откуда дует ветер: С - северный, СВ - северо-восточный, В - восточный, ЮВ - юго-восточный, Ю - южный, ЮЗ - юго-западный, З - западный, СЗ - северо-западный.
Видимость - горизонтальная дальность видимости в метрах или километрах. При видимости от 1 до 10 км при отсутствии осадков обычно наблюдается дымка, при ухудшении видимости до 1 км и менее - туман. В сухую погоду видимость может ухудшаться дымом, пылью или мглою.
Явления - указаны атмосферные явления, наблюдавшиеся в срок или в последний час перед сроком; фигурными скобками обозначены явления, наблюдавшиеся между сроками (за 1-3 часа до срока); квадратными скобками обозначены град или гололедные отложения с указанием их диаметра в мм.
Облачность - указаны через наклонную черту общая и нижняя облачность в баллах и высота нижней границы облаков в метрах; квадратными скобками обозначены формы облаков: Ci - перистые, Cs - перисто-слоистые, Cc - перисто-кучевые, Ac - высококучевые, As - высокослоистые, Sc - слоисто-кучевые, Ns - слоисто-дождевые, Cu - кучевые, Cb - кучево-дождевые. Подробнее классификацию облаков см. в Атласе облаков (PDF).
T - Температура воздуха - температура, измеренная на высоте 2 м над землей.
Td - Температура точки росы - температура, при понижении до которой содержащийся в воздухе водяной пар достигнет насыщения.
f - Относительная влажность воздуха - влажноcть воздуха, измеренная на высоте 2 м над землей.
Te - Эффективная температура - температура, которую ощущает одетый по сезону человек в тени. Характеристика душности погоды. При расчете учитывается влияние влажности воздуха и скорости ветра на теплоощущения человека.
Tes - Эффективная температура на солнце - температура, которую ощущает человек, с поправкой на солнечный нагрев. Характеристика знойности погоды. Зависит от высоты солнца над горизонтом, облачности и скорости ветра. Ночью, в пасмурную погоду, а также при ветре 12 м/с и более поправка равна нулю.
P - Атмосферное давление - приведенное к уровню моря атмосферное давление.
Po - Атмосферное давление - измеренное на уровне метеостанции атмосферное давление.
Tmin - Минимальная температура - минимум температуры воздуха на высоте 2 м над землей.
Tmax - Максимальная температура - максимум температуры воздуха на высоте 2 м над землей.
R - Количество осадков - Количество выпавших осадков за период времени, мм. При наведении курсора мыши на число - период времени, за который выпало указанное количество осадков.
R24 - Количество осадков - Количество выпавших осадков за 24 часа, мм.
S - Снежный покров - Высота снежного покрова, см. При наведении курсора мыши на число - состояние снежного покрова и степень покрытия местности в баллах.